| time (UTC) | temp C | wind direction | speed KPH | gust KPH | rain 1hr cm | rain 24hr cm | rain mn cm | humidity % | barometer mb |
| 20260506130827 | 11 | 10 | 16.1 | 30.6 | 0.00 | 0.03 | 0.03 | 74 | 1012.9 |
| 20260506124827 | 11 | 12 | 16.1 | 33.8 | 0.00 | 0.00 | 0.00 | 73 | 1012.6 |
| 20260506122827 | 11 | 16 | 17.7 | 33.8 | 0.00 | 0.00 | 0.00 | 73 | 1012.6 |
| 20260506120827 | 11 | 18 | 19.3 | 35.4 | 0.00 | 0.00 | 0.00 | 73 | 1012.6 |
| 20260506115827 | 11 | 353 | 19.3 | 35.4 | 0.00 | 0.00 | 0.00 | 58 | 1012.2 |
| 20260506111827 | 11 | 358 | 17.7 | 35.4 | 0.00 | 0.00 | 0.00 | 63 | 1012.5 |
| 20260506110828 | 11 | 0 | 17.7 | 35.4 | 0.00 | 0.00 | 0.00 | 63 | 1012.5 |
| 20260506103827 | 11 | 357 | 14.5 | 32.2 | 0.00 | 0.00 | 0.00 | 64 | 1012.2 |
| 20260506093827 | 11 | 358 | 16.1 | 32.2 | 0.00 | 0.00 | 0.00 | 63 | 1012.4 |
| 20260506080827 | 9 | 350 | 17.7 | 33.8 | 0.00 | 0.00 | 0.00 | 67 | 1012.6 |
| 20260506061827 | 8 | 354 | 16.1 | 29.0 | 0.00 | 0.00 | 0.00 | 73 | 1012.3 |
| 20260506044827 | 8 | 0 | 16.1 | 29.0 | 0.00 | 0.00 | 0.00 | 76 | 1011.9 |
| 20260506043827 | 8 | 0 | 16.1 | 29.0 | 0.00 | 0.00 | 0.00 | 76 | 1011.9 |
| 20260506042827 | 8 | 0 | 14.5 | 29.0 | 0.00 | 0.00 | 0.00 | 76 | 1011.9 |
| 20260506041827 | 8 | 0 | 14.5 | 29.0 | 0.00 | 0.00 | 0.00 | 76 | 1011.9 |
| 20260506034827 | 8 | 0 | 14.5 | 30.6 | 0.00 | 0.00 | 0.00 | 77 | 1012.2 |
| 20260506030827 | 9 | 0 | 16.1 | 30.6 | 0.00 | 0.00 | 0.00 | 77 | 1012.2 |
| 20260506024827 | 9 | 2 | 16.1 | 29.0 | 0.00 | 0.00 | 0.00 | 76 | 1012.4 |
| 20260506011827 | 10 | 14 | 16.1 | 32.2 | 0.00 | 0.00 | 0.00 | 74 | 1012.6 |
| 20260505225828 | 11 | 52 | 16.1 | 32.2 | 0.00 | 0.00 | 0.00 | 76 | 1012.6 |
| 20260505224827 | 11 | 52 | 16.1 | 32.2 | 0.00 | 0.00 | 0.00 | 76 | 1012.6 |
| 20260505222827 | 11 | 52 | 16.1 | 32.2 | 0.00 | 0.00 | 0.00 | 76 | 1012.6 |
| 20260505213826 | 11 | 42 | 14.5 | 25.7 | 0.00 | 0.00 | 0.00 | 78 | 1012.6 |
| 20260505212827 | 11 | 42 | 12.9 | 22.5 | 0.00 | 0.00 | 0.00 | 78 | 1012.6 |
| 20260505202827 | 11 | 56 | 12.9 | 24.1 | 0.00 | 0.00 | 0.00 | 75 | 1012.5 |
| 20260505183826 | 11 | 46 | 12.9 | 27.4 | 0.00 | 0.00 | 0.00 | 76 | 1011.7 |
| 20260505180828 | 11 | 46 | 14.5 | 29.0 | 0.00 | 0.00 | 0.00 | 77 | 1011.4 |
| 20260505175827 | 11 | 42 | 14.5 | 24.1 | 0.00 | 0.00 | 0.00 | 73 | 1011.4 |
| 20260505174827 | 11 | 42 | 14.5 | 24.1 | 0.00 | 0.00 | 0.00 | 73 | 1011.5 |
| 20260505170829 | 12 | 42 | 12.9 | 24.1 | 0.00 | 0.00 | 0.00 | 73 | 1011.5 |
| 20260505151830 | 13 | 60 | 16.1 | 30.6 | 0.00 | 0.00 | 0.00 | 64 | 1011.8 |
| 20260505150827 | 13 | 52 | 16.1 | 32.2 | 0.00 | 0.00 | 0.00 | 65 | 1011.6 |